This is the latest recevied weather packets stored in our database for station/object KI6SYE. If no packets are shown the sender has not sent any weather packets the latest 10 day(s).
| Time | Temp. | Humidity | Pressure | Rain* | Wind** | Luminosity | Snow |
|---|---|---|---|---|---|---|---|
| 1778012489 | 16.67° C | 69% | 1014.9 hPa | 0 mm | - | 436 W/m² | - |
| 1778012185 | 16.67° C | 70% | 1014.9 hPa | 0 mm | - | 383 W/m² | - |
| 1778011883 | 16.67° C | 69% | 1015.1 hPa | 0 mm | - | 406 W/m² | - |
| 1778011581 | 17.22° C | 69% | 1015 hPa | 0 mm | - | 406 W/m² | - |
| 1778011278 | 17.22° C | 68% | 1015 hPa | 0 mm | - | 542 W/m² | - |
| 1778010974 | 16.67° C | 68% | 1015 hPa | 0 mm | - | 708 W/m² | - |
| 1778010671 | 17.22° C | 68% | 1015.3 hPa | 0 mm | - | 431 W/m² | - |
| 1778010368 | 17.78° C | 69% | 1015 hPa | 0 mm | - | 971 W/m² | - |
| 1778010064 | 17.22° C | 71% | 1015.3 hPa | 0 mm | - | 886 W/m² | - |
| 1778009761 | 16.67° C | 71% | 1015.2 hPa | 0 mm | - | 869 W/m² | - |
| 1778009458 | 17.22° C | 70% | 1015.4 hPa | 0 mm | - | 866 W/m² | - |
| 1778009157 | 16.67° C | 71% | 1015.2 hPa | 0 mm | - | 713 W/m² | - |
| 1778008854 | 16.67° C | 73% | 1015.4 hPa | 0 mm | - | 440 W/m² | - |
| 1778008552 | 16.67° C | 71% | 1015.3 hPa | 0 mm | - | 560 W/m² | - |
| 1778008249 | 16.67° C | 72% | 1015.3 hPa | 0 mm | - | 733 W/m² | - |
| 1778007944 | 16.11° C | 74% | 1015.3 hPa | 0 mm | - | 577 W/m² | - |
| 1778007640 | 16.67° C | 72% | 1015.4 hPa | 0 mm | - | 837 W/m² | - |
| 1778007337 | 16.67° C | 70% | 1015.2 hPa | 0 mm | - | 689 W/m² | - |
| 1778007033 | 17.22° C | 71% | 1015.3 hPa | 0 mm | - | 631 W/m² | - |
| 1778006730 | 16.67° C | 70% | 1015.3 hPa | 0 mm | - | 708 W/m² | - |
| 1778006427 | 16.67° C | 73% | 1015.5 hPa | 0 mm | - | 503 W/m² | - |
| 1778006125 | 16.67° C | 74% | 1015.4 hPa | 0 mm | - | 697 W/m² | - |
| 1778005822 | 16.11° C | 73% | 1015.5 hPa | 0 mm | - | 440 W/m² | - |
| 1778005518 | 16.11° C | 73% | 1015.2 hPa | 0 mm | - | 339 W/m² | - |
| 1778005215 | 16.11° C | 73% | 1015.3 hPa | 0 mm | - | 346 W/m² | - |
* Rain latest hour (hover to see other rain measurements)
** Current wind speed in m/s (hover to see current wind gust speed)